DateTimeUTC,F1_A11,F1_S11,BsB_S11,BsG_S11,BsR_S11,BbsB_S11,BbsG_S11,BbsR_S11,BaB_A11,BaG_A11,BaR_A11,Tu_S11,T_S11,Uu_S11,U_S11,P_S11,T1_A11
2021-09-04T02:00:00Z,00000200,20000000,,,,,,,-000.16,0000.14,-000.37,18.5,25.3,02.3,01.5,0667.0,31.1
2021-09-04T02:01:00Z,00000200,20000000,,,,,,,0000.10,-000.19,0000.36,18.5,25.3,02.0,01.3,0667.0,31.1
2021-09-04T02:02:00Z,00000200,20000000,,,,,,,-000.39,-000.16,-000.07,18.5,25.4,02.0,01.3,0667.0,31.1
2021-09-04T02:03:00Z,00000200,60000000,,,,,,,0000.22,0000.03,-000.08,18.5,25.4,02.0,01.3,0667.0,31.1
2021-09-04T02:04:00Z,00000200,40000000,0001.41,0000.59,0000.56,0000.75,0000.18,0000.12,0000.26,0000.40,0000.21,18.8,25.2,02.0,01.3,0667.9,31.1
2021-09-04T02:05:00Z,00000200,00000000,0001.68,0000.79,0000.46,0000.72,-000.01,0000.47,0000.16,0000.37,0000.15,18.8,25.2,01.9,01.3,0668.0,31.0
2021-09-04T02:06:00Z,00000200,01000000,0001.82,0000.85,0000.47,0000.14,0000.16,0000.38,-000.04,-000.08,0000.18,18.8,25.2,02.0,01.4,0668.0,31.1
2021-09-04T02:07:00Z,00000200,01000000,0001.56,0000.63,0000.79,-000.23,0000.22,0000.40,0000.54,0000.25,0000.00,18.8,25.2,01.9,01.3,0668.0,31.0
2021-09-04T02:08:00Z,00000200,00000000,0001.35,0000.79,0000.62,-000.23,0000.23,-000.23,-000.13,0000.09,-000.18,18.8,25.1,01.9,01.3,0668.0,31.0
2021-09-04T02:09:00Z,00000200,01000000,0001.53,0000.73,0000.31,0000.75,0000.13,0000.09,0000.26,0000.15,0000.46,18.7,25.1,01.9,01.3,0668.1,31.0
2021-09-04T02:10:00Z,00000200,01000000,0000.51,0000.61,0000.58,0000.19,0000.02,0000.42,0000.22,-000.05,0000.12,18.7,25.1,01.9,01.3,0668.0,31.0
2021-09-04T02:11:00Z,00000200,00000000,0001.47,0000.49,0000.54,0000.40,0000.12,0000.29,0000.06,0000.24,-000.32,18.7,25.1,01.9,01.3,0668.0,31.0
2021-09-04T02:12:00Z,00000200,01000000,0001.37,0000.49,0000.55,-000.10,-000.03,0000.23,0000.12,-000.03,0000.55,18.7,25.1,01.7,01.2,0668.0,31.0
2021-09-04T02:13:00Z,00000200,01000000,0001.18,0000.74,0000.66,-000.03,0000.16,0000.62,-000.07,0000.10,-000.00,18.7,25.1,01.8,01.2,0668.0,31.0
2021-09-04T02:14:00Z,00000200,01000000,0001.42,0000.58,0000.30,0000.11,0000.16,-000.26,0000.39,0000.16,-000.10,18.8,25.1,01.6,01.1,0668.0,31.0
2021-09-04T02:15:00Z,00000200,01000000,0001.38,0000.50,0000.57,-000.19,-000.01,0000.09,0000.11,0000.23,0000.23,18.8,25.1,01.6,01.1,0668.0,31.0
2021-09-04T02:16:00Z,00000200,01000000,0001.46,0000.26,0000.62,0000.43,0000.24,0000.28,-000.07,0000.21,0000.17,18.8,25.1,01.5,01.0,0668.0,31.1
2021-09-04T02:17:00Z,00000200,01000000,0001.53,0000.89,0000.28,0000.66,0000.30,0000.19,-000.04,-000.12,0000.22,18.8,25.1,01.4,01.0,0668.0,31.0
2021-09-04T02:18:00Z,00000200,01000000,0001.07,0000.50,0000.45,0000.57,0000.22,0000.24,0000.29,0000.29,-000.11,18.8,25.1,01.4,00.9,0668.0,31.0
2021-09-04T02:19:00Z,00000200,01000000,0001.53,0000.65,0000.68,0000.27,-000.16,0000.26,0000.08,0000.11,0000.12,18.8,25.1,01.4,01.0,0668.0,31.0
2021-09-04T02:20:00Z,00000200,01000000,0001.23,0000.81,0000.41,-000.09,0000.03,0000.38,0000.37,0000.25,0000.26,18.8,25.1,01.4,01.0,0668.0,31.0
2021-09-04T02:21:00Z,00000200,01000000,0001.38,0000.85,0000.31,0000.50,0000.31,0000.33,0000.32,-000.09,0000.02,18.8,25.1,01.3,00.9,0668.0,31.0
2021-09-04T02:22:00Z,00000200,01000000,0000.64,0000.62,0000.59,0000.06,0000.15,0000.11,-000.04,0000.10,0000.11,18.7,25.1,01.3,00.9,0668.0,31.0
2021-09-04T02:23:00Z,00000200,01000000,0001.34,0000.43,0000.75,0000.55,0000.15,0000.09,0000.15,-000.06,-000.17,18.7,25.1,01.3,00.9,0668.0,31.0
2021-09-04T02:24:00Z,00000200,01000000,0001.56,0000.76,0000.72,0000.31,0000.36,0000.19,0000.20,0000.27,0000.14,18.7,25.1,01.3,00.9,0668.0,31.0
2021-09-04T02:25:00Z,00000200,01000000,0001.15,0001.00,0000.77,0000.52,0000.17,0000.08,0000.31,0000.48,0000.16,18.7,25.1,01.2,00.8,0668.0,31.0
2021-09-04T02:26:00Z,00000200,01000000,0001.43,0000.61,0000.69,0000.14,0000.14,0000.22,-000.00,-000.06,-000.13,18.7,25.1,01.2,00.8,0668.0,31.0
2021-09-04T02:27:00Z,00000200,01000000,0001.43,0000.99,0000.54,-000.01,-000.14,-000.01,-000.13,0000.09,0000.51,18.6,25.0,01.2,00.8,0668.0,31.0
2021-09-04T02:28:00Z,00000200,01000000,0001.68,0000.42,0000.39,0000.18,0000.42,0000.21,0000.59,0000.37,0000.10,18.6,25.0,01.2,00.8,0668.0,31.0
2021-09-04T02:29:00Z,00000200,01000000,0001.74,0000.61,0000.73,0001.05,0000.02,-000.01,-000.01,-000.14,-000.07,18.6,25.0,01.2,00.8,0668.0,31.0
2021-09-04T02:30:00Z,00000200,01000000,0001.97,0000.78,0000.56,0000.48,-000.17,0000.59,0000.20,0000.24,-000.08,18.6,25.0,01.2,00.8,0668.0,31.0
2021-09-04T02:31:00Z,00000200,01000000,0001.62,0000.72,0000.51,0000.35,0000.18,0000.10,0000.34,0000.17,0000.54,18.6,25.0,01.2,00.8,0668.0,31.0
2021-09-04T02:32:00Z,00000200,01000000,0002.30,0000.82,0000.36,0000.36,-000.02,0000.01,0000.03,0000.05,0000.11,18.6,25.0,01.1,00.7,0668.0,31.0
2021-09-04T02:33:00Z,00000200,01000000,0002.07,0000.66,0000.61,0000.12,0000.33,0000.22,0000.06,0000.42,-000.24,18.5,24.9,01.0,00.7,0668.0,31.0
2021-09-04T02:34:00Z,00000200,01000000,0001.57,0001.03,0000.57,0000.10,-000.01,0000.16,0000.31,0000.03,0000.53,18.5,25.0,01.1,00.8,0668.0,31.0
2021-09-04T02:35:00Z,00000200,01000000,0001.50,0000.97,0000.65,0000.24,0000.01,0000.42,-000.07,0000.38,-000.07,18.5,25.0,01.1,00.7,0668.0,31.0
2021-09-04T02:36:00Z,00000200,01000000,0001.58,0000.69,0000.59,-000.29,-000.03,-000.06,0000.34,0000.25,0000.26,18.5,24.9,01.1,00.7,0668.0,31.0
2021-09-04T02:37:00Z,00000200,01000000,0000.84,0000.53,0000.73,0000.28,0000.26,-000.15,0000.37,0000.32,0000.26,18.5,24.9,01.1,00.7,0668.0,31.0
2021-09-04T02:38:00Z,00000200,01000000,0001.39,0000.37,0000.37,0000.50,0000.08,0000.06,0000.05,-000.45,-000.06,18.5,24.9,01.0,00.7,0667.9,31.0
2021-09-04T02:39:00Z,00000200,01000000,0001.27,0000.80,0000.53,0000.93,0000.11,0000.34,0000.17,0000.63,-000.06,18.5,24.9,01.0,00.7,0667.9,31.0
2021-09-04T02:40:00Z,00000200,01000000,0002.10,0000.45,0000.38,-000.15,0000.20,-000.01,0000.25,0000.11,0000.11,18.5,24.9,01.0,00.7,0667.9,31.0
2021-09-04T02:41:00Z,00000200,01000000,0001.52,0000.63,0000.51,0000.46,0000.11,0000.11,0000.46,0000.25,0000.32,18.4,24.9,01.0,00.7,0667.9,31.0
2021-09-04T02:42:00Z,00000200,01000000,0001.36,0000.57,0000.48,0000.12,0000.23,0000.36,0000.08,0000.20,0000.29,18.4,24.9,01.0,00.6,0667.9,31.0
2021-09-04T02:43:00Z,00000200,01000000,0001.40,0000.77,0000.31,0000.58,-000.05,-000.16,0000.77,0000.23,-000.01,18.5,24.9,01.0,00.7,0667.9,31.0
2021-09-04T02:44:00Z,00000200,01000000,0001.14,0000.56,0000.65,-000.04,0000.11,-000.25,-000.23,0000.25,0000.10,18.5,24.9,01.0,00.7,0667.9,31.0
2021-09-04T02:45:00Z,00000200,01000000,0001.37,0000.45,0000.46,0000.15,0000.06,0000.26,-000.01,-000.08,0000.46,18.7,25.0,00.9,00.6,0667.9,31.0
2021-09-04T02:46:00Z,00000200,01000000,0001.23,0000.24,0000.28,0000.18,0000.03,0000.12,0000.47,0000.57,0000.20,18.7,25.0,00.9,00.6,0667.9,31.0
2021-09-04T02:47:00Z,00000200,01000000,0001.27,0000.64,0000.36,0000.07,-000.28,0000.21,0000.03,-000.02,0000.06,18.8,25.0,00.9,00.6,0667.9,31.0
2021-09-04T02:48:00Z,00000200,01000000,0000.29,0000.16,0000.17,0000.81,-000.10,0000.02,0000.01,-000.21,0000.21,18.8,25.1,00.7,00.5,0667.9,31.0
2021-09-04T02:49:00Z,00000200,01000000,0000.27,-000.15,0000.18,0000.67,0000.03,0000.02,-000.01,0000.06,-000.45,18.8,25.1,00.8,00.5,0667.9,31.0
2021-09-04T02:50:00Z,00000200,01000000,0001.37,0000.50,0000.23,0000.30,0000.02,0000.11,0000.10,0000.21,0000.38,18.7,25.1,00.8,00.5,0667.9,31.0
2021-09-04T02:51:00Z,00000200,01000000,0001.25,0000.22,0000.64,0001.05,0000.17,0000.30,0000.02,0000.02,-000.62,18.7,25.0,00.7,00.5,0667.9,31.0
2021-09-04T02:52:00Z,00000200,01000000,0001.10,0000.20,0000.44,0000.46,-000.28,0000.26,0000.13,0000.23,0000.50,18.7,25.0,00.8,00.6,0667.9,31.0
2021-09-04T02:53:00Z,00000200,01000000,0000.78,0000.60,0000.50,0000.51,-000.11,-000.03,0000.09,-000.18,-000.24,18.7,25.0,00.7,00.5,0667.9,31.0
2021-09-04T02:54:00Z,00000200,01000000,0001.29,0000.99,0000.77,0000.60,0000.09,0000.13,0000.23,0000.10,0000.30,18.6,25.0,00.7,00.5,0667.9,31.0
2021-09-04T02:55:00Z,00000200,01000000,0001.05,0000.57,0000.54,0000.34,0000.18,0000.47,0000.04,0000.25,0000.40,18.6,25.0,00.6,00.4,0667.9,31.0
2021-09-04T02:56:00Z,00000200,01000000,0000.88,0000.29,0000.37,0000.22,0000.00,0000.20,0000.20,-000.00,-000.12,18.6,25.0,00.6,00.4,0667.9,31.0
2021-09-04T02:57:00Z,00000200,41000000,,,,,,,0001.15,0000.86,0000.74,18.6,25.0,00.3,00.2,0667.9,31.0
2021-09-04T02:58:00Z,00000200,61000000,,,,,,,-000.46,-000.07,-000.33,18.3,25.1,00.9,00.6,0666.9,31.0
2021-09-04T02:59:00Z,00000200,21000000,,,,,,,-000.27,-000.10,-000.15,18.3,25.2,00.9,00.6,0666.9,31.0
